Tracking 35274 objects as of 10-Sep-2026
HD Live streaming from Space Station
objects crossing your sky now

SPACEBEE-53


SPACEBEE-53 is no longer on orbit


NORAD ID: 47434
Int'l Code: 2021-006X
Launch date: January 24, 2021
Source: United States (US)
Launch site: AIR FORCE EASTERN TEST RANGE (AFETR)
Decay date: 2023-04-10
Your satellite tracking list
Your tracking list is empty




NASA's NSSDC Master Catalog

Two Line Element Set (TLE):
1 47434U 21006X   23097.52915932  .12702332  24713-5  30675-2 0  9993
2 47434  97.3736 164.6671 0014347 274.7429  85.2227 16.29169155122404
Source of the keplerian elements: AFSPC